Flag Weather past 2 weeks in Güstrow, Mecklenburg-Western Pomerania, Germany

Now
30 °F

Partly sunny.


Feels Like: 18 °F
Forecast: 24 / 32 °F
Wind: 18 mph from East

Location: Laage

Current Time: Nov 29, 2014 at 9:52:46 AM

Latest Report: Nov 29, 2014 at 9:20 AM


Visibility: 4 mi

Pressure: 30.24 "Hg

Humidity: 80%

Dew point: 25 °F

Location of GüstrowLocation

Historic Weather in Güstrow — Graph

°F

Güstrow temperature yesterday

Maximum temperature yesterday: 36 °F (at 12:20 AM)
Minimum temperature yesterday: 30 °F (at 9:20 AM)
Average temperature yesterday: 32 °F

Past Weeks' High & Low Weather Summary

 TemperatureHumidityPressure
High52 °F (Nov 14, 1:20 PM)100% (Nov 14, 8:20 AM)30.36 "Hg (Nov 14, 8:20 AM)
Low28 °F (Nov 29, 5:20 AM)75% (Nov 27, 3:20 PM)29.62 "Hg (Nov 16, 12:20 PM)
Average42 °F92%30.09 "Hg
* Reported Nov 14 8:20 AM — Nov 29 8:20 AM, Güstrow, Weather by CustomWeather, © 2014

Note: Actual official high and low records may vary slightly from our data, if they occured in-between our weather recording intervals... More about our weather records

Advertising

Güstrow weather history for previous 24 hours

 ConditionsComfort  
Time TempWeatherWind HumidityBarometerVisibility
8:20 AM
Nov 29
30 °FPartly sunny.14 mph80%30.24 "Hg4 mi
7:20 AM30 °FOvercast.16 mph80%30.24 "Hg4 mi
6:20 AM30 °FPassing clouds.15 mph80%30.24 "Hg4 mi
5:56 AM30 °FMostly cloudy.17 mph80%30.24 "Hg4 mi
5:20 AM28 °FOvercast.17 mph86%30.21 "Hg4 mi
4:20 AM30 °FOvercast.18 mph80%30.21 "HgN/A
3:20 AM30 °FOvercast.17 mph80%30.24 "HgN/A
2:20 AM30 °FMostly cloudy.13 mph80%30.24 "HgN/A
1:20 AM30 °FOvercast.16 mph80%30.24 "HgN/A
12:20 AM30 °FPassing clouds.14 mph80%30.24 "HgN/A
11:20 PM
Nov 28
30 °FPassing clouds.16 mph80%30.24 "HgN/A
10:20 PM32 °FPassing clouds.18 mph75%30.24 "HgN/A
9:20 PM32 °FPassing clouds.17 mph75%30.21 "HgN/A
8:20 PM32 °FPassing clouds.14 mph80%30.21 "Hg6 mi
7:20 PM32 °FPassing clouds.14 mph80%30.21 "Hg6 mi
6:20 PM32 °FPassing clouds.13 mph80%30.18 "Hg6 mi
5:20 PM34 °FPartly cloudy.15 mph75%30.18 "Hg6 mi
4:20 PM32 °FPassing clouds.17 mph80%30.18 "Hg5 mi
3:20 PM32 °FPartly sunny.16 mph80%30.15 "Hg5 mi
2:20 PM32 °FPartly sunny.15 mph80%30.15 "Hg6 mi
1:20 PM32 °FPartly sunny.15 mph80%30.18 "Hg6 mi
12:20 PM32 °FPartly sunny.15 mph80%30.18 "Hg5 mi
11:20 AM32 °FPartly sunny.15 mph80%30.18 "Hg4 mi
10:20 AM32 °FPartly sunny.21 mph80%30.18 "Hg4 mi
9:59 AM30 °FIce fog.20 mph86%30.18 "Hg3 mi
9:20 AM30 °FIce fog.17 mph86%30.18 "Hg3 mi
Weather by CustomWeather, © 2014

See weather overviewHow to use our weather pages